Location: Ash Swamp
(41.5170°N, 74.6157°W)
Time: 02:09:26
(UTC+00:00)

Meteor 1-19 Rocket - Pass Details

Date: 14 July 2020
Orbit: 810 x 924 km, 81.2° (Epoch: 14 August)

Event Time Altitude Azimuth Distance (km) Brightness Sun altitude
Rises 06:25:05 0° 348° (NNW) 3,436 8.3 -24.2°
Reaches altitude 10° 06:27:33 10° 347° (NNW) 2,479 7.4 -24.0°
Maximum altitude 06:33:09 78° 263° (W) 853 4.1 -23.6°
Enters shadow 06:34:13 58° 193° (SSW) 960 4.1 -23.5°
